Doha, Qatar

8:24 AM AST on February 07, 2016 (GMT +0300)
Doha International

Weather History for OTBD - November, 2012

Change the Weather History Date:

Friday, November 16, 2012

  Actual Average Record
Temperature  
Mean Temperature 78 °F -  
Max Temperature 84 °F 80 °F 89 °F (1998)
Min Temperature 73 °F 63 °F 62 °F (1997)
Cooling Degree Days 14    
Growing Degree Days 28 (Base 50)    
Moisture  
Dew Point 58 °F    
Average Humidity 49    
Maximum Humidity 57    
Minimum Humidity 34    
Precipitation  
Precipitation 0.00 in 0.01 in - ()
Sea Level Pressure  
Sea Level Pressure 30.08 in    
Wind  
Wind Speed 12 mph ()    
Max Wind Speed 16 mph    
Max Gust Speed -    
Visibility 8.0 miles    
Events      
Averages and records for this station are not official NWS values.
T = Trace of Precipitation, MM = Missing Value Source: Averaged Metar Reports

Daily Weather History Graph

Daily Weather History Graph

Search for Another Location

Airport or City:

Trip Planner

Search our weather history database for the weather conditions in past years. The results will help you decide how hot, cold, wet, or windy it might be!

Date:

Astronomy

Nov. 16, 2012 Rise Set
Actual Time 5:51 AM AST 4:45 PM AST
Civil Twilight 5:27 AM AST 5:09 PM AST
Nautical Twilight 4:59 AM AST 5:37 PM AST
Astronomical Twilight 4:32 AM AST 6:04 PM AST
Moon 8:18 AM AST (11/16) 7:22 PM AST (11/16)
Length of Visible Light 11h 42m
Length of Day
10h 53m
Waxing Crescent, 9% of the Moon is Illuminated
Nov 16
Waxing Crescent
Nov 20
First Quarter
Nov 28
Full
Dec 6
Last Quarter
Dec 13
New

Hourly Weather History & Observations

Time (AST) Temp. Heat Index Dew Point Humidity Pressure Visibility Wind Dir Wind Speed Gust Speed Precip Events Conditions
12:00 AM 77.0 °F - 60.8 °F 57% 30.01 in - NNW 13.8 mph - N/A   Clear
12:30 AM 77.0 °F - 60.8 °F 57% 30.01 in - NNW 13.8 mph - N/A   Clear
1:00 AM 75.2 °F - 59.0 °F 57% 30.01 in - NNW 13.8 mph - N/A   Clear
1:30 AM 75.2 °F - 59.0 °F 57% 30.01 in - NNW 15.0 mph - N/A   Clear
2:00 AM 75.2 °F - 59.0 °F 57% 30.01 in - NNW 12.7 mph - N/A   Clear
2:30 AM 75.2 °F - 59.0 °F 57% 30.04 in - NNW 13.8 mph - N/A   Clear
3:00 AM 75 °F - 58 °F 46% 30.04 in 7 mi NNW 13.8 mph - -  
3:00 AM 75.2 °F - 59.0 °F 57% 30.04 in - NNW 13.8 mph - N/A   Clear
3:30 AM 75.2 °F - 57.2 °F 53% 30.04 in - NNW 12.7 mph - N/A   Clear
4:00 AM 75.2 °F - 59.0 °F 57% 30.04 in - NNW 12.7 mph - N/A   Clear
4:30 AM 75.2 °F - 59.0 °F 57% 30.04 in - NNW 11.5 mph - N/A   Clear
5:00 AM 75.2 °F - 59.0 °F 57% 30.06 in - NNW 11.5 mph - N/A   Clear
6:00 AM 75.2 °F - 59.0 °F 57% 30.09 in - NNW 9.2 mph - N/A   Clear
6:30 AM 75.2 °F - 57.2 °F 53% 30.06 in - NNW 11.5 mph - N/A   Clear
7:00 AM 75.2 °F - 57.2 °F 53% 30.09 in - NNW 11.5 mph - N/A   Clear
7:30 AM 77.0 °F - 57.2 °F 50% 30.12 in - NNW 11.5 mph - N/A   Clear
8:00 AM 78.8 °F - 57.2 °F 47% 30.12 in - NNW 13.8 mph - N/A   Clear
8:30 AM 78.8 °F - 57.2 °F 47% 30.12 in - NNW 15.0 mph - N/A   Clear
9:00 AM 80 °F - 57 °F 34% 30.14 in 9 mi NNW 16.1 mph - -  
9:00 AM 80.6 °F 80.8 °F 57.2 °F 45% 30.12 in - NNW 16.1 mph - N/A   Clear
9:30 AM 80.6 °F 80.8 °F 57.2 °F 45% 30.12 in - NNW 15.0 mph - N/A   Clear
10:00 AM 82.4 °F 82.0 °F 57.2 °F 42% 30.12 in - North 16.1 mph - N/A   Clear
10:30 AM 82.4 °F 82.0 °F 57.2 °F 42% 30.12 in - North 16.1 mph - N/A   Clear
11:00 AM 82.4 °F 82.0 °F 57.2 °F 42% 30.09 in - North 15.0 mph - N/A   Clear
11:30 AM 84.2 °F 83.5 °F 57.2 °F 40% 30.09 in - North 13.8 mph - N/A   Clear
12:00 PM 84.2 °F 83.5 °F 57.2 °F 40% 30.09 in - North 15.0 mph - N/A   Clear
12:30 PM 84.2 °F 83.5 °F 57.2 °F 40% 30.06 in - North 13.8 mph - N/A   Clear
1:00 PM 82.4 °F 82.0 °F 57.2 °F 42% 30.06 in - North 13.8 mph - N/A   Clear
1:30 PM 84.2 °F 83.8 °F 59.0 °F 42% 30.06 in - North 13.8 mph - N/A   Clear
2:00 PM 84.2 °F 83.5 °F 57.2 °F 40% 30.06 in - NNE 13.8 mph - N/A   Clear
2:30 PM 82.4 °F 82.9 °F 60.8 °F 48% 30.06 in - North 15.0 mph - N/A   Clear
3:00 PM 82 °F - 60 °F 37% 30.08 in 9 mi NNE 13.8 mph - -  
3:00 PM 82.4 °F 82.9 °F 60.8 °F 48% 30.06 in - NNE 13.8 mph - N/A   Clear
3:30 PM 82.4 °F 82.0 °F 57.2 °F 42% 30.06 in - North 16.1 mph - N/A   Clear
4:00 PM 80.6 °F 81.1 °F 59.0 °F 48% 30.06 in - North 16.1 mph - N/A   Clear
4:30 PM 80.6 °F 81.1 °F 59.0 °F 48% 30.09 in - North 15.0 mph - N/A   Clear
5:00 PM 78.8 °F - 59.0 °F 51% 30.09 in - North 15.0 mph - N/A   Clear
5:30 PM 78.8 °F - 57.2 °F 47% 30.09 in - North 12.7 mph - N/A   Clear
6:00 PM 78.8 °F - 55.4 °F 44% 30.09 in - NNW 12.7 mph - N/A   Clear
6:30 PM 78.8 °F - 57.2 °F 47% 30.12 in - NNW 13.8 mph - N/A   Clear
7:00 PM 77.0 °F - 57.2 °F 50% 30.12 in - NNW 12.7 mph - N/A   Clear
7:30 PM 77.0 °F - 57.2 °F 50% 30.12 in - NNW 12.7 mph - N/A   Clear
8:00 PM 77.0 °F - 57.2 °F 50% 30.12 in - NNW 11.5 mph - N/A   Clear
8:30 PM 77.0 °F - 59.0 °F 54% 30.12 in - NNW 9.2 mph - N/A   Clear
9:00 PM 76 °F - 58 °F 44% 30.15 in 7 mi NNW 9.2 mph - -  
9:00 PM 77.0 °F - 59.0 °F 54% 30.12 in - NNW 9.2 mph - N/A   Clear
9:30 PM 77.0 °F - 59.0 °F 54% 30.12 in - NNW 8.1 mph - N/A   Clear
10:00 PM 75.2 °F - 59.0 °F 57% 30.12 in - North 8.1 mph - N/A   Clear
10:30 PM 75.2 °F - 59.0 °F 57% 30.12 in - NNW 6.9 mph - N/A   Clear
11:00 PM 75.2 °F - 59.0 °F 57% 30.12 in - NNW 6.9 mph - N/A   Clear
11:30 PM 75.2 °F - 59.0 °F 57% 30.12 in - NW 4.6 mph - N/A   Clear